Mount Holly, NJ

1:46 PM EDT on May 27, 2018 (GMT -0400)
South Jersey Regional

Weather History for KVAY - March, 2013

Change the Weather History Date:

Tuesday, March 5, 2013

  Actual Average (KPNE) Record (KPNE)
Temperature  
Mean Temperature 39 °F -  
Max Temperature 48 °F 45 °F 66 °F (2008)
Min Temperature 30 °F 28 °F 14 °F (2017)
Degree Days  
Heating Degree Days 26    
Moisture  
Dew Point 24 °F    
Average Humidity 59    
Maximum Humidity 85    
Minimum Humidity 41    
Precipitation  
Precipitation 0.00 in - - ()
Sea Level Pressure  
Sea Level Pressure 30.00 in    
Wind  
Wind Speed 5 mph (North)    
Max Wind Speed 12 mph    
Max Gust Speed 16 mph    
Visibility 10 miles    
Events      
Averages and records for this station are not official NWS values.
T = Trace of Precipitation, MM = Missing Value Source: NWS Daily Summary

Daily Weather History Graph

Daily Weather History Graph

Search for Another Location

Airport or City:

Astronomy

Mar. 05, 2013 Rise Set
Actual Time 6:26 AM EST 5:55 PM EST
Civil Twilight 5:59 AM EST 6:23 PM EST
Nautical Twilight 5:27 AM EST 6:54 PM EST
Astronomical Twilight 4:56 AM EST 7:25 PM EST
Moon 1:35 AM EST (3/5) 11:32 AM EST (3/5)
Length of Visible Light 12h 23m
Length of Day
11h 29m
Last Quarter, 41% of the Moon is Illuminated
Mar 5
Last Quarter
Mar 11
New
Mar 19
First Quarter
Mar 27
Full
Apr 3
Last Quarter

Hourly Weather History & Observations

Time (EST) Temp. Windchill Dew Point Humidity Pressure Visibility Wind Dir Wind Speed Gust Speed Precip Events Conditions
12:54 AM 33.1 °F 27.7 °F 21.0 °F 61% 29.97 in 10.0 mi WNW 5.8 mph 16.1 mph N/A   Overcast
2:54 AM 32.0 °F 24.8 °F 21.0 °F 64% 29.98 in 10.0 mi NW 8.1 mph - N/A   Clear
3:54 AM 32.0 °F 25.6 °F 21.0 °F 64% 29.99 in 10.0 mi NW 6.9 mph - N/A   Partly Cloudy
4:54 AM 30.9 °F 27.5 °F 21.0 °F 67% 30.01 in 10.0 mi Variable 3.5 mph - N/A   Scattered Clouds
5:54 AM 30.9 °F 26.2 °F 19.9 °F 64% 30.02 in 10.0 mi NW 4.6 mph - N/A   Clear
6:54 AM 30.9 °F 25.2 °F 21.0 °F 67% 30.03 in 10.0 mi West 5.8 mph - N/A   Clear
8:54 AM 36.0 °F 28.0 °F 21.9 °F 57% 30.04 in 10.0 mi NNW 11.5 mph - N/A   Clear
9:54 AM 37.9 °F 32.1 °F 21.9 °F 53% 30.04 in 10.0 mi North 8.1 mph - N/A   Clear
10:54 AM 39.9 °F 35.1 °F 23.0 °F 51% 30.04 in 10.0 mi NW 6.9 mph - N/A   Clear
11:54 AM 43.0 °F 40.3 °F 24.1 °F 47% 30.03 in 10.0 mi NNE 4.6 mph - N/A   Clear
12:54 PM 45.0 °F 42.6 °F 25.0 °F 46% 30.01 in 10.0 mi Variable 4.6 mph - N/A   Clear
1:54 PM 46.0 °F 43.9 °F 24.1 °F 42% 30.00 in 10.0 mi Variable 4.6 mph - N/A   Clear
2:54 PM 48.0 °F - 25.0 °F 41% 29.99 in 10.0 mi Calm Calm - N/A   Clear
3:54 PM 46.9 °F - 24.1 °F 41% 29.96 in 10.0 mi NE 3.5 mph - N/A   Clear
4:54 PM 46.0 °F 43.1 °F 24.1 °F 42% 29.96 in 10.0 mi ENE 5.8 mph - N/A   Clear
5:54 PM 44.1 °F - 25.0 °F 47% 29.99 in 10.0 mi Calm Calm - N/A   Clear
6:54 PM 39.0 °F 34.0 °F 26.1 °F 60% 30.01 in 10.0 mi SSE 6.9 mph - N/A   Clear
7:54 PM 36.0 °F 33.3 °F 26.1 °F 67% 30.00 in 10.0 mi SE 3.5 mph - N/A   Clear
8:54 PM 35.1 °F - 26.1 °F 70% 30.00 in 10.0 mi Calm Calm - N/A   Clear
9:54 PM 32.0 °F 28.7 °F 26.1 °F 79% 29.99 in 10.0 mi SE 3.5 mph - N/A   Clear
10:54 PM 30.9 °F 27.5 °F 26.1 °F 82% 29.97 in 10.0 mi East 3.5 mph - N/A   Clear
11:54 PM 30.9 °F - 27.0 °F 85% 29.95 in 10.0 mi Calm Calm - N/A   Clear